1511586000.67,6350,8.81,73490.8,-1.85,-19.91,-21.53,0,*69
1511586001.92,6351,8.81,73488.3,-1.85,-19.85,-21.53,0,*6D
1511586003.19,6352,8.81,73486.8,-1.83,-19.65,-21.33,0,*60
1511586004.43,6353,8.81,73490.5,-1.83,-19.71,-21.47,0,*67
1511586005.65,6354,8.81,73488.3,-1.85,-19.91,-21.57,0,*69
1511586006.85,6355,8.81,73490.5,-1.85,-19.71,-21.39,0,*6E
1511586008.08,6356,8.81,73488.3,-1.83,-19.71,-21.47,0,*62
1511586009.3,6357,8.81,73492.3,-1.85,-19.91,-21.53,0,*6E
1511586010.52,6358,8.81,73490.8,-1.85,-19.91,-21.57,0,*65
1511586011.76,6359,8.81,73492.0,-1.85,-19.85,-21.57,0,*61
1511586012.99,6360,8.81,73488.5,-1.85,-19.91,-21.53,0,*6A
1511586014.24,6361,8.81,73488.3,-1.87,-19.71,-21.53,0,*67
1511586015.49,6362,8.81,73486.8,-1.87,-19.71,-21.53,0,*64
1511586016.71,6363,8.81,73490.3,-1.87,-19.75,-21.43,0,*60
1511586017.93,6364,8.81,73490.8,-1.89,-19.75,-21.57,0,*6C
1511586019.21,6365,8.81,73494.3,-1.87,-19.57,-21.23,0,*60
1511586020.46,6366,8.81,73494.5,-1.87,-19.61,-21.43,0,*60
1511586021.74,6367,8.81,73484.5,-1.87,-19.57,-21.27,0,*66
1511586023.0,6368,8.81,73484.8,-1.87,-19.51,-21.23,0,*6B
1511586024.26,6369,8.81,73482.8,-1.85,-19.41,-21.23,0,*69
1511586025.52,6370,8.81,73476.3,-1.87,-19.51,-21.23,0,*62
1511586026.78,6371,8.81,73482.5,-1.85,-19.61,-21.27,0,*66
1511586028.01,6372,8.81,73482.5,-1.85,-19.57,-21.39,0,*6F
1511586029.23,6373,8.81,73484.0,-1.85,-19.61,-21.43,0,*66
1511586030.48,6374,8.81,73486.0,-1.87,-19.71,-21.57,0,*67
1511586031.75,6375,8.81,73486.8,-1.87,-19.61,-21.57,0,*67
1511586033.0,6376,8.81,73480.3,-1.87,-19.71,-21.57,0,*65
1511586034.21,6377,8.81,73484.5,-1.85,-19.81,-21.63,0,*6E
1511586035.43,6378,8.81,73484.8,-1.85,-19.85,-21.63,0,*65
1511586036.63,6379,8.81,73482.8,-1.85,-19.75,-21.63,0,*6B
1511586037.82,6380,8.81,73490.8,-1.85,-19.75,-21.73,0,*6C
1511586039.07,6381,8.81,73488.3,-1.87,-19.71,-21.53,0,*69
1511586040.3,6382,8.81,73490.5,-1.89,-19.65,-21.47,0,*64
1511586041.54,6383,8.81,73490.8,-1.87,-19.75,-21.53,0,*6F
1511586042.79,6384,8.81,73486.5,-1.87,-19.75,-21.57,0,*6C
1511586044.0,6385,8.81,73490.0,-1.87,-19.91,-21.63,0,*60
1511586045.23,6386,8.81,73486.3,-1.89,-19.91,-21.67,0,*69
1511586046.45,6387,8.81,73484.3,-1.89,-19.75,-21.57,0,*61
1511586047.69,6388,8.81,73486.5,-1.89,-19.81,-21.67,0,*66
1511586048.94,6389,8.81,73490.5,-1.89,-19.65,-21.57,0,*6E
1511586050.22,6390,8.81,73486.0,-1.87,-19.61,-21.53,0,*68
1511586051.5,6391,8.81,73490.0,-1.87,-19.61,-21.53,0,*69
1511586052.75,6392,8.81,73486.0,-1.89,-19.61,-21.57,0,*60
1511586054.0,6393,8.81,73490.3,-1.87,-19.51,-21.23,0,*6F
1511586055.26,6394,8.81,73484.8,-1.89,-19.57,-21.33,0,*61
1511586056.46,6395,8.81,73490.3,-1.89,-19.75,-21.63,0,*65
1511586057.71,6396,8.81,73488.8,-1.89,-19.61,-21.57,0,*64
1511586058.98,6397,8.81,73492.0,-1.87,-19.61,-21.53,0,*6F
1511586060.18,6398,8.81,73490.8,-1.89,-19.75,-21.63,0,*68
1511586061.4,6399,8.81,73490.3,-1.87,-19.71,-21.73,0,*62
1511586062.63,6400,8.81,73492.3,-1.87,-19.81,-21.73,0,*6A
1511586063.88,6401,8.81,73492.3,-1.87,-19.71,-21.57,0,*62
1511586065.15,6402,8.81,73492.8,-1.87,-19.61,-21.57,0,*60
1511586066.37,6403,8.81,73494.8,-1.87,-19.75,-21.73,0,*62
1511586067.57,6404,8.81,73494.8,-1.89,-19.75,-21.63,0,*6A
1511586068.84,6405,8.81,73492.5,-1.87,-19.61,-21.53,0,*63
1511586070.09,6406,8.81,73492.8,-1.89,-19.65,-21.57,0,*6E
1511586071.37,6407,8.81,73490.5,-1.87,-19.57,-21.53,0,*64
1511586072.62,6408,8.81,73488.5,-1.89,-19.65,-21.57,0,*60
1511586073.9,6409,8.81,73486.8,-1.87,-19.57,-21.53,0,*6A
1511586075.17,6410,8.81,73490.5,-1.87,-19.57,-21.53,0,*62
1511586076.4,6411,8.81,73484.5,-1.89,-19.61,-21.43,0,*69
1511586077.63,6412,8.81,73486.3,-1.89,-19.57,-21.43,0,*6F
1511586078.86,6413,8.81,73484.3,-1.89,-19.57,-21.47,0,*6A
1511586080.08,6414,8.81,73484.8,-1.89,-19.65,-21.63,0,*6A
1511586081.31,6415,8.81,73486.5,-1.83,-19.71,-21.63,0,*64
1511586082.56,6416,8.81,73480.5,-1.87,-19.61,-21.73,0,*63
1511586083.8,6417,8.81,73484.8,-1.87,-19.85,-21.73,0,*68
1511586085.0,6418,8.81,73486.0,-1.85,-19.71,-21.63,0,*6F
1511586086.22,6419,8.81,73484.3,-1.87,-19.75,-21.73,0,*69
1511586087.42,6420,8.81,73486.0,-1.89,-19.75,-21.77,0,*69
1511586088.61,6421,8.81,73490.5,-1.89,-19.75,-21.63,0,*6D
1511586089.81,6422,8.81,73486.5,-1.89,-19.75,-21.77,0,*6B
1511586091.01,6423,8.81,73490.8,-1.85,-19.75,-21.63,0,*63
1511586092.23,6424,8.81,73490.5,-1.87,-19.75,-21.77,0,*63
1511586093.47,6425,8.81,73494.3,-1.89,-19.81,-21.83,0,*6C
1511586094.67,6426,8.81,73486.3,-1.89,-19.75,-21.77,0,*6F
1511586095.92,6427,8.81,73488.8,-1.87,-19.61,-21.63,0,*60
1511586097.14,6428,8.81,73492.5,-1.87,-19.71,-21.63,0,*6E
1511586098.39,6429,8.81,73494.3,-1.87,-19.61,-21.73,0,*6F
1511586099.66,6430,8.81,73490.5,-1.87,-19.61,-21.57,0,*61
1511586100.94,6431,8.81,73494.3,-1.87,-19.61,-21.53,0,*64
1511586102.19,6432,8.81,73492.0,-1.89,-19.61,-21.57,0,*6D
1511586103.44,6433,8.81,73490.5,-1.87,-19.51,-21.57,0,*61
1511586104.71,6434,8.81,73494.3,-1.87,-19.61,-21.57,0,*65
1511586105.99,6435,8.81,73492.5,-1.87,-19.57,-21.57,0,*61
1511586107.21,6436,8.81,73492.3,-1.85,-19.61,-21.63,0,*62
1511586108.46,6437,8.81,73490.5,-1.87,-19.61,-21.63,0,*61
1511586109.69,6438,8.81,73488.3,-1.85,-19.61,-21.63,0,*6C
1511586110.89,6439,8.81,73494.3,-1.85,-19.75,-21.77,0,*6D
1511586112.12,6440,8.81,73490.3,-1.85,-19.61,-21.77,0,*66
1511586113.35,6441,8.81,73492.5,-1.85,-19.61,-21.63,0,*62
1511586114.57,6442,8.81,73490.3,-1.85,-19.61,-21.73,0,*60
1511586115.8,6443,8.81,73488.5,-1.85,-19.75,-21.87,0,*6F
1511586117.02,6444,8.81,73488.5,-1.87,-19.75,-21.77,0,*65
1511586118.24,6445,8.81,73488.3,-1.87,-19.71,-21.77,0,*60
1511586119.5,6446,8.81,73490.8,-1.87,-19.71,-21.87,0,*6C
1511586120.72,6447,8.81,73480.8,-1.87,-19.75,-21.77,0,*66
1511586121.97,6448,8.81,73484.0,-1.87,-19.75,-21.87,0,*66
1511586123.2,6449,8.81,73488.3,-1.85,-19.91,-21.87,0,*6F
1511586124.42,6450,8.81,73492.3,-1.87,-19.75,-21.77,0,*60
1511586125.64,6451,8.81,73490.3,-1.87,-19.75,-21.77,0,*61
1511586126.89,6452,8.81,73488.0,-1.87,-19.75,-21.87,0,*6D
1511586128.14,6453,8.81,73488.0,-1.87,-19.85,-21.93,0,*66
1511586129.37,6454,8.81,73490.0,-1.87,-19.71,-21.77,0,*60
1511586130.62,6455,8.81,73494.3,-1.87,-19.71,-21.87,0,*6E
1511586131.85,6456,8.81,73490.8,-1.85,-19.75,-21.87,0,*6B
1511586133.07,6457,8.81,73490.5,-1.85,-19.85,-21.93,0,*60
1511586134.27,6458,8.81,73488.5,-1.85,-19.91,-21.93,0,*6A
1511586135.5,6459,8.81,73492.5,-1.85,-19.71,-21.87,0,*60
1511586136.75,6460,8.81,73490.8,-1.85,-19.85,-21.87,0,*61
1511586137.95,6461,8.81,73486.8,-1.85,-19.91,-22.03,0,*6A
1511586139.17,6462,8.81,73490.8,-1.85,-19.85,-21.93,0,*66
1511586140.39,6463,8.81,73490.5,-1.85,-19.75,-21.87,0,*6D
1511586141.6,6464,8.81,73484.0,-1.85,-19.71,-21.77,0,*61
1511586142.83,6465,8.81,73490.5,-1.85,-19.71,-21.87,0,*6F
1511586144.03,6466,8.81,73486.0,-1.85,-19.71,-21.77,0,*63
1511586145.28,6467,8.81,73488.5,-1.83,-19.65,-21.73,0,*65
1511586146.56,6468,8.81,73486.3,-1.83,-19.65,-21.83,0,*65
1511586147.79,6469,8.81,73486.8,-1.85,-19.71,-21.87,0,*63
1511586148.99,6470,8.81,73488.0,-1.85,-19.75,-22.03,0,*60
1511586150.19,6471,8.81,73484.8,-1.85,-19.75,-21.93,0,*6B
1511586151.42,6472,8.88,73488.3,-1.85,-19.71,-21.97,0,*68
1511586152.64,6473,8.81,73484.3,-1.85,-19.91,-21.97,0,*67
1511586153.91,6474,8.81,73484.5,-1.83,-19.85,-21.97,0,*63
1511586155.11,6475,8.81,73486.0,-1.85,-19.75,-21.93,0,*6F
1511586156.38,6476,8.81,73484.8,-1.83,-19.81,-21.97,0,*65
1511586157.57,6477,8.81,73488.0,-1.85,-19.91,-21.93,0,*67
1511586158.85,6478,8.81,73482.3,-1.83,-19.81,-21.87,0,*6A
1511586160.12,6479,8.81,73490.0,-1.83,-19.81,-21.97,0,*6A
1511586161.36,6480,8.81,73484.3,-1.83,-19.85,-22.11,0,*65
1511586162.6,6481,8.81,73482.5,-1.83,-19.95,-22.11,0,*65
1511586163.85,6482,8.81,73486.5,-1.83,-20.09,-22.17,0,*6F
1511586165.11,6483,8.81,73482.5,-1.83,-19.95,-22.17,0,*61
1511586166.34,6484,8.81,73484.0,-1.81,-19.95,-22.17,0,*64
1511586167.57,6485,8.81,73488.0,-1.83,-19.95,-22.11,0,*61
1511586168.83,6486,8.81,73486.0,-1.83,-19.99,-22.17,0,*68
1511586170.09,6487,8.81,73486.8,-1.83,-19.95,-22.17,0,*65
1511586171.35,6488,8.81,73482.8,-1.83,-19.95,-22.17,0,*6A
1511586172.58,6489,8.81,73482.3,-1.83,-19.95,-22.11,0,*6D
1511586173.85,6490,8.81,73480.5,-1.83,-19.81,-21.97,0,*6D
1511586175.08,6491,8.81,73480.5,-1.83,-19.95,-22.11,0,*64
1511586176.31,6492,8.81,73482.8,-1.83,-19.95,-22.11,0,*67
1511586177.57,6493,8.81,73486.3,-1.83,-19.99,-22.17,0,*6C
1511586178.81,6494,8.81,73490.3,-1.81,-19.95,-22.17,0,*65
1511586180.07,6495,8.81,73486.8,-1.83,-19.95,-22.17,0,*66
1511586181.33,6496,8.81,73488.3,-1.83,-19.99,-22.17,0,*69
1511586182.59,6497,8.81,73486.5,-1.83,-19.95,-22.17,0,*64
1511586183.85,6498,8.81,73486.5,-1.83,-19.95,-22.17,0,*6B
1511586185.11,6499,8.81,73486.8,-1.83,-19.95,-22.17,0,*6A
1511586186.34,6500,8.81,73490.8,-1.83,-19.95,-22.11,0,*6D
1511586187.6,6501,8.81,73482.3,-1.83,-19.99,-22.17,0,*66
1511586188.8,6502,8.81,73482.3,-1.81,-19.99,-22.27,0,*64
1511586189.99,6503,8.81,73482.5,-1.81,-20.09,-22.27,0,*66
1511586191.25,6504,8.81,73482.8,-1.83,-20.09,-22.17,0,*60
1511586192.47,6505,8.81,73476.8,-1.81,-20.09,-22.17,0,*63
1511586193.69,6506,8.81,73480.3,-1.81,-20.09,-22.31,0,*64
1511586194.91,6507,8.81,73478.3,-1.81,-20.09,-22.17,0,*61
1511586196.11,6508,8.81,73480.0,-1.81,-19.99,-22.27,0,*6E
1511586197.37,6509,8.81,73482.3,-1.77,-19.85,-22.07,0,*69
1511586198.57,6510,8.81,73484.8,-1.81,-19.99,-22.27,0,*67
1511586199.81,6511,8.81,73486.0,-1.83,-20.15,-22.41,0,*6A
1511586201.05,6512,8.81,73488.3,-1.83,-20.15,-22.41,0,*69
1511586202.3,6513,8.81,73484.8,-1.83,-20.15,-22.27,0,*68
1511586203.55,6514,8.81,73484.8,-1.81,-20.15,-22.31,0,*6A
1511586204.74,6515,8.81,73486.3,-1.81,-20.25,-22.41,0,*6F
1511586205.99,6516,8.81,73482.0,-1.83,-20.25,-22.47,0,*68
1511586207.24,6517,8.81,73478.3,-1.83,-20.15,-22.41,0,*6C
1511586208.42,6518,8.81,73480.5,-1.81,-20.09,-22.41,0,*6C
1511586209.61,6519,8.81,73480.0,-1.81,-20.29,-22.41,0,*6F
1511586210.83,6520,8.81,73484.3,-1.83,-20.25,-22.41,0,*6B
1511586212.04,6521,8.81,73486.5,-1.83,-20.29,-22.41,0,*66
1511586213.27,6522,8.81,73484.5,-1.83,-20.39,-22.63,0,*64
1511586214.52,6523,8.81,73482.0,-1.83,-20.29,-22.47,0,*62
1511586215.73,6524,8.81,73486.8,-1.81,-20.43,-22.53,0,*6E
1511586216.95,6525,8.81,73486.5,-1.81,-20.29,-22.47,0,*66
1511586218.2,6526,8.81,73482.0,-1.83,-20.29,-22.47,0,*67
1511586219.42,6527,8.81,73484.8,-1.85,-20.35,-22.53,0,*68
1511586220.64,6528,8.81,73486.8,-1.83,-20.25,-22.41,0,*63
1511586221.89,6529,8.81,73488.5,-1.83,-20.25,-22.47,0,*64
1511586223.11,6530,8.81,73484.0,-1.83,-20.29,-22.53,0,*65
1511586224.31,6531,8.81,73482.0,-1.81,-20.29,-22.53,0,*66
1511586225.54,6532,8.81,73480.8,-1.83,-20.59,-22.67,0,*67
1511586226.78,6533,8.81,73488.8,-1.85,-20.53,-22.73,0,*6F
1511586228.03,6534,8.81,73486.5,-1.83,-20.49,-22.67,0,*60
1511586229.27,6535,8.81,73488.8,-1.83,-20.39,-22.63,0,*62
1511586230.52,6536,8.81,73488.3,-1.83,-20.29,-22.47,0,*66
1511586231.75,6537,8.81,73490.3,-1.83,-20.43,-22.67,0,*69
1511586232.98,6538,8.81,73486.3,-1.83,-20.39,-22.63,0,*6F
1511586234.23,6539,8.81,73484.8,-1.83,-20.29,-22.47,0,*69
1511586235.45,6540,8.81,73486.0,-1.83,-20.29,-22.53,0,*62
1511586236.68,6541,8.81,73480.8,-1.83,-20.39,-22.63,0,*61
1511586237.89,6542,8.81,73486.5,-1.85,-20.43,-22.63,0,*69
1511586239.17,6543,8.81,73484.8,-1.83,-20.49,-22.77,0,*61
1511586240.43,6544,8.81,73484.3,-1.83,-20.63,-22.77,0,*6E
1511586241.63,6545,8.81,73488.8,-1.81,-20.63,-22.93,0,*67
1511586242.86,6546,8.81,73484.8,-1.83,-20.43,-22.67,0,*6F
1511586244.12,6547,8.81,73494.0,-1.83,-20.43,-22.77,0,*6F
1511586245.38,6548,8.81,73490.8,-1.83,-20.49,-22.63,0,*6F
1511586246.63,6549,8.81,73486.0,-1.83,-20.49,-22.67,0,*6A
1511586247.86,6550,8.81,73484.8,-1.83,-20.43,-22.63,0,*6C
1511586249.14,6551,8.81,73488.8,-1.83,-20.49,-22.77,0,*62
1511586250.38,6552,8.81,73488.5,-1.83,-20.43,-22.63,0,*6E
1511586251.61,6553,8.81,73486.5,-1.83,-20.39,-22.63,0,*62
1511586252.89,6554,8.81,73488.0,-1.83,-20.49,-22.73,0,*63
1511586254.14,6555,8.81,73484.3,-1.83,-20.59,-22.77,0,*67
1511586255.37,6556,8.81,73486.0,-1.85,-20.53,-22.83,0,*63
1511586256.62,6557,8.81,73484.5,-1.83,-20.49,-22.63,0,*61
1511586257.88,6558,8.81,73486.8,-1.83,-20.49,-22.83,0,*60
1511586259.15,6559,8.81,73486.5,-1.83,-20.49,-22.77,0,*6A
1511586260.39,6560,8.81,73486.8,-1.83,-20.59,-22.83,0,*6A
1511586261.61,6561,8.81,73486.5,-1.83,-20.73,-22.83,0,*63
1511586262.81,6562,8.81,73488.3,-1.85,-20.69,-22.87,0,*69
1511586264.04,6563,8.81,73490.0,-1.83,-20.73,-22.93,0,*60
1511586265.27,6564,8.81,73488.3,-1.83,-20.59,-22.83,0,*6E
1511586266.5,6565,8.81,73484.3,-1.83,-20.73,-22.97,0,*62
1511586267.73,6566,8.81,73490.5,-1.83,-20.73,-22.97,0,*61
1511586268.95,6567,8.81,73486.5,-1.83,-20.73,-22.93,0,*64
1511586270.16,6568,8.81,73490.0,-1.81,-20.59,-22.93,0,*61
1511586271.36,6569,8.81,73486.5,-1.85,-20.69,-22.87,0,*62
1511586272.59,6570,8.81,73482.5,-1.83,-20.73,-22.93,0,*62
1511586273.82,6571,8.81,73486.3,-1.83,-20.63,-22.93,0,*62
1511586275.07,6572,8.81,73484.5,-1.85,-20.79,-23.03,0,*64
1511586276.32,6573,8.81,73482.5,-1.85,-20.83,-23.19,0,*6B
1511586277.55,6574,8.81,73488.8,-1.83,-20.89,-23.09,0,*61
1511586278.78,6575,8.81,73484.8,-1.85,-20.93,-23.19,0,*6C
1511586280.0,6576,8.81,73488.5,-1.85,-20.93,-23.19,0,*6F
1511586281.2,6577,8.81,73480.8,-1.85,-20.93,-23.13,0,*64
1511586282.4,6578,8.81,73486.3,-1.85,-20.93,-23.13,0,*6B
1511586283.65,6579,8.81,73490.3,-1.85,-20.99,-23.19,0,*6A
1511586284.86,6580,8.81,73488.3,-1.85,-21.09,-23.29,0,*67
1511586286.08,6581,8.81,73490.8,-1.85,-21.09,-23.29,0,*66
1511586287.3,6582,8.81,73490.0,-1.85,-21.09,-23.19,0,*66
1511586288.53,6583,8.81,73490.8,-1.85,-20.99,-23.13,0,*65
1511586289.75,6584,8.81,73494.5,-1.85,-20.83,-23.13,0,*69
1511586290.97,6585,8.81,73494.5,-1.87,-20.93,-23.13,0,*6B
1511586292.22,6586,8.81,73490.8,-1.87,-20.83,-23.13,0,*69
1511586293.47,6587,8.81,73492.8,-1.87,-20.93,-23.03,0,*68
1511586294.69,6588,8.81,73490.5,-1.87,-20.93,-23.13,0,*66
1511586295.94,6589,8.81,73494.0,-1.87,-20.79,-23.13,0,*63
1511586297.21,6590,8.81,73492.5,-1.87,-20.79,-23.03,0,*6A
1511586298.46,6591,8.81,73484.3,-1.85,-20.79,-23.03,0,*69
1511586299.7,6592,8.81,73490.8,-1.85,-20.79,-23.03,0,*6A
1511586300.95,6593,8.81,73486.5,-1.85,-20.79,-23.03,0,*6B
1511586302.2,6594,8.81,73486.0,-1.85,-20.79,-23.03,0,*6C
1511586303.42,6595,8.81,73488.5,-1.85,-20.79,-22.97,0,*61
1511586304.65,6596,8.81,73494.5,-1.85,-20.69,-23.03,0,*6F
1511586305.87,6597,8.81,73492.8,-1.85,-20.69,-23.03,0,*6E
1511586307.12,6598,8.81,73490.8,-1.85,-20.79,-23.03,0,*60
1511586308.37,6599,8.81,73492.3,-1.85,-20.79,-23.03,0,*61
1511586309.62,6600,8.81,73488.8,-1.83,-20.79,-22.93,0,*6C
1511586310.87,6601,8.81,73492.5,-1.85,-20.83,-23.03,0,*66
1511586312.12,6602,8.81,73494.5,-1.85,-20.83,-23.03,0,*65
1511586313.33,6603,8.81,73498.5,-1.85,-20.89,-22.97,0,*62
1511586314.55,6604,8.81,73494.0,-1.85,-20.93,-23.19,0,*69
1511586315.75,6605,8.81,73488.5,-1.85,-20.93,-23.13,0,*62
1511586317.02,6606,8.81,73488.5,-1.87,-20.99,-23.19,0,*63
1511586318.26,6607,8.81,73480.0,-1.87,-21.09,-23.29,0,*69
1511586319.51,6608,8.81,73484.5,-1.87,-21.13,-23.33,0,*66
1511586320.75,6609,8.81,73478.8,-1.87,-21.09,-23.29,0,*67
1511586322.02,6610,8.81,73480.3,-1.87,-20.99,-23.33,0,*6C
1511586323.27,6611,8.81,73476.8,-1.87,-21.09,-23.33,0,*65
1511586324.54,6612,8.81,73474.8,-1.87,-21.23,-23.33,0,*6E
1511586325.77,6613,8.81,73478.3,-1.83,-21.17,-23.43,0,*6B
1511586327.0,6614,8.81,73482.5,-1.85,-21.23,-23.43,0,*6D
1511586328.26,6615,8.81,73482.5,-1.87,-21.23,-23.43,0,*6E
1511586329.5,6616,8.81,73488.0,-1.87,-21.13,-23.33,0,*69
1511586330.75,6617,8.81,73486.8,-1.87,-21.13,-23.19,0,*60
1511586332.0,6618,8.81,73488.3,-1.87,-21.13,-23.29,0,*6C
1511586333.24,6619,8.81,73484.0,-1.87,-21.09,-23.29,0,*66
1511586334.51,6620,8.81,73488.3,-1.87,-20.99,-23.19,0,*67
1511586335.76,6621,8.81,73490.3,-1.87,-21.13,-23.19,0,*65
1511586337.0,6622,8.81,73482.0,-1.87,-21.09,-23.33,0,*65
1511586338.25,6623,8.81,73486.0,-1.85,-21.23,-23.29,0,*65
1511586339.5,6624,8.81,73482.0,-1.89,-21.23,-23.49,0,*68
1511586340.76,6625,8.81,73484.5,-1.87,-21.23,-23.43,0,*6D
1511586341.98,6626,8.81,73484.0,-1.89,-21.27,-23.39,0,*69
1511586343.2,6627,8.81,73480.5,-1.89,-21.09,-23.29,0,*65
1511586344.44,6628,8.81,73480.3,-1.87,-21.09,-23.33,0,*6F
1511586345.68,6629,8.81,73486.3,-1.87,-21.13,-23.29,0,*6E
1511586346.96,6630,8.81,73480.0,-1.87,-21.23,-23.33,0,*6E
1511586348.21,6631,8.81,73482.8,-1.87,-21.27,-23.43,0,*6C
1511586349.46,6632,8.81,73480.3,-1.87,-21.27,-23.43,0,*6F
1511586350.72,6633,8.81,73484.8,-1.87,-21.23,-23.43,0,*6A
1511586351.94,6634,8.81,73486.8,-1.89,-21.27,-23.39,0,*6A
1511586353.19,6635,8.81,73488.3,-1.87,-21.27,-23.43,0,*68
1511586354.47,6636,8.81,73490.0,-1.87,-21.27,-23.33,0,*6C
1511586355.69,6637,8.81,73490.0,-1.87,-21.39,-23.43,0,*65
1511586356.96,6638,8.81,73488.8,-1.87,-21.27,-23.49,0,*6F
1511586358.19,6639,8.81,73488.0,-1.87,-21.43,-23.43,0,*66
1511586359.43,6640,8.81,73490.5,-1.87,-21.39,-23.53,0,*64
1511586360.67,6641,8.81,73486.3,-1.87,-21.43,-23.69,0,*61
1511586361.91,6642,8.81,73484.0,-1.87,-21.43,-23.69,0,*62
1511586363.16,6643,8.81,73488.5,-1.87,-21.53,-23.79,0,*63
1511586364.4,6644,8.81,73488.0,-1.87,-21.43,-23.69,0,*64
1511586365.63,6645,8.81,73490.3,-1.89,-21.57,-23.75,0,*63
1511586366.82,6646,8.81,73490.8,-1.89,-21.63,-23.75,0,*67
1511586368.04,6647,8.81,73490.8,-1.89,-21.57,-23.59,0,*6F
1511586369.29,6648,8.81,73490.3,-1.87,-21.43,-23.69,0,*68
1511586370.48,6649,8.81,73488.0,-1.89,-21.47,-23.59,0,*60
1511586371.7,6650,8.81,73490.5,-1.89,-21.47,-23.53,0,*62
1511586372.95,6651,8.81,73486.8,-1.89,-21.33,-23.53,0,*60
1511586374.2,6652,8.81,73490.3,-1.87,-21.27,-23.43,0,*69
1511586375.47,6653,8.81,73492.3,-1.87,-21.27,-23.53,0,*69
1511586376.69,6654,8.81,73492.0,-1.89,-21.43,-23.53,0,*62
1511586377.94,6655,8.81,73494.0,-1.89,-21.33,-23.49,0,*6F
1511586379.19,6656,8.81,73492.3,-1.89,-21.33,-23.49,0,*6C
1511586380.46,6657,8.81,73490.5,-1.87,-21.27,-23.49,0,*66
1511586381.7,6658,8.81,73490.8,-1.87,-21.39,-23.49,0,*66
1511586382.95,6659,8.81,73484.0,-1.87,-21.43,-23.53,0,*61
1511586384.22,6660,8.81,73486.5,-1.87,-21.53,-23.53,0,*6A
1511586385.45,6661,8.81,73480.8,-1.89,-21.57,-23.75,0,*65
1511586386.72,6662,8.81,73472.5,-1.87,-21.57,-23.85,0,*67
1511586387.94,6663,8.81,73474.8,-1.89,-21.77,-23.99,0,*67
1511586389.18,6664,8.81,73474.0,-1.87,-21.73,-23.95,0,*66
1511586390.41,6665,8.81,73472.8,-1.89,-21.67,-23.89,0,*61
1511586391.6,6666,8.81,73472.5,-1.89,-21.47,-23.59,0,*6D
1511586392.88,6667,8.81,73472.3,-1.87,-21.53,-23.69,0,*64
1511586394.1,6668,8.81,73482.0,-1.89,-21.63,-23.85,0,*64
1511586395.38,6669,8.81,73484.5,-1.87,-21.53,-23.53,0,*63
1511586396.62,6670,8.81,73484.3,-1.87,-21.43,-23.69,0,*63
1511586397.86,6671,8.81,73486.5,-1.89,-21.57,-23.69,0,*69
1511586399.08,6672,8.81,73486.0,-1.89,-21.57,-23.59,0,*69
1511586400.3,6673,8.81,73486.3,-1.89,-21.57,-23.59,0,*68
1511586401.5,6674,8.81,73490.5,-1.89,-21.63,-23.75,0,*66
1511586402.69,6675,8.81,73486.8,-1.89,-21.63,-23.59,0,*69
1511586403.89,6676,8.81,73490.3,-1.89,-21.63,-23.75,0,*64
1511586405.08,6677,8.81,73484.3,-1.89,-21.63,-23.89,0,*66
1511586406.31,6678,8.81,73488.8,-1.89,-21.77,-23.99,0,*6D
1511586407.53,6679,8.81,73484.5,-1.87,-21.63,-23.79,0,*69
1511586408.75,6680,8.81,73484.8,-1.89,-21.67,-23.89,0,*6A
1511586409.97,6681,8.81,73486.8,-1.89,-21.77,-23.99,0,*6B
1511586411.22,6682,8.81,73484.8,-1.89,-21.67,-23.85,0,*64
1511586412.45,6683,8.81,73488.5,-1.89,-21.63,-23.85,0,*61
1511586413.68,6684,8.81,73486.5,-1.89,-21.73,-23.85,0,*67
1511586414.92,6685,8.81,73484.5,-1.87,-21.77,-23.95,0,*6D
1511586416.15,6686,8.81,73486.5,-1.89,-21.77,-23.85,0,*61
1511586417.4,6687,8.81,73490.5,-1.87,-21.77,-23.85,0,*6E
1511586418.59,6688,8.81,73490.5,-1.89,-21.77,-23.89,0,*63
1511586419.81,6689,8.81,73488.0,-1.89,-21.73,-23.95,0,*6B
1511586421.04,6690,8.81,73494.0,-1.89,-21.77,-23.99,0,*6B
1511586422.26,6691,8.81,73492.0,-1.89,-21.67,-23.89,0,*6A
1511586423.51,6692,8.81,73488.5,-1.89,-21.67,-23.85,0,*65
1511586424.76,6693,8.81,73490.0,-1.87,-21.57,-23.79,0,*6A
1511586426.01,6694,8.81,73486.5,-1.89,-21.67,-23.85,0,*63
1511586427.26,6695,8.81,73490.8,-1.87,-21.57,-23.79,0,*6C
1511586428.51,6696,8.81,73492.5,-1.89,-21.67,-23.85,0,*61
1511586429.76,6697,8.81,73492.5,-1.87,-21.63,-23.85,0,*6A
1511586430.98,6698,8.81,73490.0,-1.89,-21.83,-23.89,0,*69
1511586432.2,6699,8.81,73486.3,-1.89,-21.77,-23.99,0,*62
1511586433.45,6700,8.81,73486.0,-1.87,-21.77,-23.85,0,*60
1511586434.67,6701,8.81,73488.0,-1.89,-21.83,-23.89,0,*68
1511586435.9,6702,8.81,73486.0,-1.89,-21.83,-24.05,0,*68
1511586437.12,6703,8.81,73486.3,-1.89,-21.83,-24.05,0,*69
1511586438.34,6704,8.81,73488.0,-1.89,-21.83,-24.05,0,*6E
1511586439.59,6705,8.81,73490.5,-1.87,-21.77,-23.95,0,*64
1511586440.81,6706,8.81,73486.0,-1.89,-21.83,-23.89,0,*6F
1511586442.05,6707,8.81,73482.8,-1.89,-21.83,-23.99,0,*6F
1511586443.3,6708,8.81,73482.8,-1.87,-21.77,-23.85,0,*68
1511586444.52,6709,8.81,73484.8,-1.89,-21.83,-23.89,0,*60
1511586445.77,6710,8.81,73482.8,-1.87,-21.73,-23.85,0,*65
1511586447.03,6711,8.81,73484.0,-1.91,-21.87,-23.89,0,*64
1511586448.25,6712,8.81,73486.0,-1.89,-21.83,-24.05,0,*69
1511586449.49,6713,8.81,73486.3,-1.87,-21.77,-23.95,0,*63
1511586450.69,6714,8.81,73484.0,-1.89,-21.93,-24.05,0,*6E
1511586451.89,6715,8.81,73484.5,-1.89,-21.93,-24.05,0,*6F
1511586453.09,6716,8.81,73486.0,-1.89,-21.93,-24.05,0,*6C
1511586454.36,6717,8.81,73488.8,-1.87,-21.87,-24.11,0,*63
1511586455.6,6718,8.81,73492.8,-1.89,-21.97,-24.15,0,*67
1511586456.85,6719,8.81,73492.0,-1.89,-21.97,-24.15,0,*66
1511586458.05,6720,8.81,73492.5,-1.89,-21.93,-24.05,0,*69
1511586459.25,6721,8.81,73488.8,-1.89,-21.93,-24.05,0,*68
1511586460.49,6722,8.81,73490.3,-1.89,-21.83,-23.99,0,*68
1511586461.71,6723,8.81,73488.0,-1.89,-21.93,-24.15,0,*6B
1511586462.91,6724,8.81,73486.0,-1.89,-21.93,-24.05,0,*6D
1511586464.16,6725,8.81,73482.5,-1.87,-21.87,-24.05,0,*67
1511586465.4,6726,8.81,73480.8,-1.89,-21.97,-24.15,0,*6A
1511586466.62,6727,8.81,73488.3,-1.89,-22.11,-24.15,0,*66
1511586467.86,6728,8.81,73486.3,-1.89,-21.97,-24.15,0,*64
1511586469.08,6729,8.81,73490.8,-1.89,-22.07,-24.21,0,*68
1511586470.3,6730,8.81,73490.0,-1.89,-22.07,-24.15,0,*67
1511586471.51,6731,8.81,73484.0,-1.89,-22.11,-24.15,0,*61
1511586472.72,6732,8.81,73490.8,-1.89,-22.07,-24.15,0,*65
1511586473.92,6733,8.81,73488.3,-1.89,-22.11,-24.31,0,*65
1511586475.15,6734,8.81,73492.8,-1.89,-22.11,-24.21,0,*63
1511586476.38,6735,8.81,73488.8,-1.89,-22.11,-24.21,0,*62
1511586477.6,6736,8.81,73494.3,-1.89,-22.07,-24.21,0,*66
1511586478.82,6737,8.81,73488.8,-1.89,-22.07,-24.21,0,*67
1511586480.04,6738,8.81,73492.3,-1.89,-22.07,-24.21,0,*68
1511586481.29,6739,8.81,73490.5,-1.91,-22.27,-24.25,0,*66
1511586482.51,6740,8.81,73494.3,-1.91,-22.27,-24.35,0,*69
1511586483.8,6741,8.81,73488.3,-1.91,-22.17,-24.25,0,*6A
1511586485.08,6742,8.81,73492.8,-1.91,-22.17,-24.25,0,*69
1511586486.35,6743,8.81,73492.5,-1.91,-21.97,-24.11,0,*64
1511586487.59,6744,8.81,73494.0,-1.91,-21.97,-24.05,0,*66
1511586488.79,6745,8.81,73494.8,-1.89,-21.93,-24.05,0,*6A
1511586490.02,6746,8.81,73490.5,-1.89,-21.97,-24.05,0,*6D
1511586491.21,6747,8.81,73494.0,-1.89,-22.07,-24.05,0,*66
1511586492.46,6748,8.81,73494.8,-1.91,-21.97,-24.05,0,*6A
1511586493.7,6749,8.81,73494.0,-1.91,-22.03,-24.11,0,*60
1511586494.98,6750,8.81,73492.0,-1.91,-22.17,-24.25,0,*6A
1511586496.23,6751,8.81,73490.5,-1.91,-22.27,-24.25,0,*68
1511586497.46,6752,8.81,73494.3,-1.89,-22.11,-24.21,0,*63
1511586498.71,6753,8.81,73494.0,-1.91,-22.27,-24.21,0,*6E
1511586500.0,6754,8.81,73494.5,-1.91,-22.17,-24.25,0,*6E
1511586501.22,6755,8.81,73492.8,-1.91,-22.27,-24.35,0,*6D
1511586502.47,6756,8.81,73488.0,-1.91,-22.41,-24.41,0,*6D
1511586503.71,6757,8.81,73492.0,-1.91,-22.31,-24.35,0,*68
1511586504.9,6758,8.81,73494.5,-1.93,-22.41,-24.35,0,*62
1511586506.18,6759,8.81,73490.8,-1.91,-22.31,-24.41,0,*65
1511586507.43,6760,8.81,73492.3,-1.93,-22.31,-24.41,0,*6D
1511586508.7,6761,8.81,73492.0,-1.91,-22.31,-24.41,0,*6E
1511586509.95,6762,8.81,73494.0,-1.91,-22.27,-24.25,0,*68
1511586511.18,6763,8.81,73494.8,-1.93,-22.27,-24.25,0,*6B